Wind_Speed
7 7 7 8 8 7 6 5 5 4 5 5 5 6 6 6 7 8 8 9 10 10 10 9 9 9 9 9 9 9 10 10 10 10 11 12 12 12 13 13 13 13 14 14 14 14 14 14 14
7 8 8 8 8 7 6 6 6 5 5 6 6 7 8 8 9 9 9 9 10 10 10 9 10 9 10 10 9 10 10 11 11 11 12 12 13 13 13 14 14 15 15 15 15 15 15 15 15
8 8 9 8 8 7 6 6 7 6 6 6 7 7 8 10 11 10 10 10 10 10 10 10 9 9 10 10 11 11 11 12 12 13 13 13 13 13 14 14 15 15 16 16 16 16 17 17 16
9 9 9 9 8 7 7 7 7 8 7 7 7 7 8 10 11 11 12 11 11 11 10 10 10 10 10 10 10 11 11 12 12 13 13 13 14 14 15 16 16 16 16 17 17 18 17 18 18
8 9 8 8 9 8 8 8 8 8 9 8 8 8 9 9 11 12 12 12 12 12 11 12 11 11 11 12 11 12 12 13 13 13 13 14 14 15 16 16 16 16 17 17 17 18 18 19 19
7 7 7 7 9 9 9 9 10 10 10 8 8 9 9 10 11 12 13 13 12 12 12 12 12 11 11 12 12 13 13 13 13 13 14 15 15 16 17 17 17 17 17 18 18 19 19 19 19
7 8 7 8 9 10 10 10 10 10 11 9 9 9 9 10 12 12 13 13 12 12 12 12 12 12 12 12 13 14 14 14 14 14 14 15 16 16 17 17 17 17 18 18 18 19 20 20 20
7 7 8 9 10 9 10 11 11 11 11 10 10 10 10 11 12 12 13 13 12 12 13 13 13 13 13 14 14 14 14 15 15 15 15 16 16 17 17 17 18 18 19 19 19 20 20 21 21
6 6 7 8 8 9 11 11 12 12 11 10 10 10 11 12 12 13 13 12 13 13 13 14 14 14 14 15 16 16 15 15 15 16 16 16 17 18 18 18 18 18 19 20 20 21 21 21 21
5 6 7 8 8 9 10 11 12 13 12 11 11 12 13 13 14 14 14 14 13 13 14 14 15 15 15 16 17 17 17 17 16 16 16 17 17 18 19 19 20 19 19 20 21 21 21 22 22
5 7 7 9 9 10 11 12 13 14 12 13 13 13 15 15 15 15 15 14 13 14 15 15 15 16 17 18 18 18 18 18 17 17 17 18 19 19 19 19 20 20 20 20 20 21 21 22 22
5 7 8 9 10 11 11 12 13 13 13 14 15 15 17 16 17 17 16 15 15 15 16 16 17 18 19 19 18 19 18 18 18 18 18 18 20 20 19 19 20 20 20 21 21 21 22 22 22
6 8 8 9 11 12 12 13 14 14 15 16 16 16 17 18 18 17 17 17 17 16 17 17 18 19 20 20 19 19 19 19 18 18 19 20 20 19 19 19 19 19 20 21 21 21 21 21 21
6 8 9 11 12 13 13 13 14 16 18 18 16 16 18 19 20 19 19 20 19 17 18 18 18 19 20 20 20 20 20 20 19 20 20 20 20 19 19 19 20 20 20 20 21 21 21 21 21
8 9 10 11 13 14 14 15 16 17 18 18 17 17 18 19 19 20 20 21 20 19 19 19 19 20 20 20 21 21 20 20 19 19 19 19 19 19 19 20 21 20 21 21 21 21 21 22 22
9 10 12 12 14 15 16 16 17 18 18 18 18 18 19 19 19 20 20 20 20 19 20 20 21 21 20 21 21 21 20 20 19 19 19 19 19 19 20 21 21 21 22 22 22 22 22 22 23
11 12 13 14 15 16 17 17 18 18 19 18 18 19 19 19 20 21 20 21 21 20 20 21 21 20 20 20 21 21 20 20 19 19 19 19 19 20 21 22 22 22 21 22 23 23 23 23 23
12 14 14 16 17 18 18 18 18 18 19 19 20 20 20 20 20 21 21 21 21 21 21 21 20 20 20 20 21 22 20 19 19 19 20 20 20 20 21 22 22 22 21 22 22 23 24 24 24
15 16 17 18 19 19 19 19 19 19 19 19 21 21 21 21 21 21 21 21 21 21 21 21 21 20 21 22 22 21 20 19 19 19 20 20 21 21 21 22 22 22 22 22 22 23 24 24 24
16 18 18 19 20 21 21 21 21 21 22 22 20 20 20 20 21 21 21 20 21 21 22 21 21 20 20 20 20 20 19 19 19 19 19 21 21 21 21 21 22 22 22 22 22 23 24 24 25
17 18 19 20 20 21 22 20 21 22 22 21 21 20 20 20 20 20 20 20 21 22 21 20 20 18 18 18 19 18 18 18 18 19 19 20 20 21 21 21 21 21 21 22 24 24 24 24 25
18 19 21 21 21 22 23 23 21 22 23 23 22 21 20 20 20 20 21 22 22 22 20 19 19 19 19 19 19 18 18 19 19 20 21 21 20 21 21 22 22 21 22 23 23 24 24 24 24
20 21 22 22 22 23 24 25 22 22 23 23 22 21 22 22 22 22 22 22 23 22 21 19 20 20 19 19 20 20 20 19 19 21 21 22 22 22 22 21 21 22 23 24 24 24 24 24 24
22 23 24 24 23 24 24 24 22 22 22 22 21 20 21 22 22 22 22 23 23 22 21 20 20 20 20 20 20 21 20 20 20 21 21 22 21 21 21 21 21 22 23 23 23 23 24 24 23
23 24 25 26 25 24 22 23 22 22 22 22 21 21 21 21 21 22 23 22 22 22 21 20 20 20 20 20 21 21 21 22 22 22 22 22 22 22 22 22 22 22 22 23 23 23 24 24 24
24 25 26 27 27 25 22 21 21 22 22 22 21 20 20 19 19 21 22 21 21 21 20 20 20 21 21 21 21 21 21 22 22 22 23 23 22 22 22 22 22 22 23 23 23 23 23 23 23
24 24 25 26 25 24 22 21 21 21 22 22 21 20 20 20 19 20 20 20 20 20 19 20 21 21 20 21 21 21 21 21 21 22 22 21 21 22 22 22 22 23 23 23 23 23 22 22 23
23 24 24 23 23 21 20 20 21 21 21 20 21 20 20 19 19 19 19 18 19 19 19 19 19 19 20 20 20 20 20 20 21 20 20 21 21 22 22 21 22 23 23 23 23 22 22 22 23
22 22 22 21 20 20 19 19 20 21 21 21 21 21 20 20 20 19 18 18 18 18 18 18 18 18 18 19 20 19 19 20 20 20 20 20 21 21 22 21 22 22 22 22 23 22 22 23 24
21 20 20 19 19 19 19 18 18 19 21 21 21 20 21 20 20 20 19 18 18 17 17 17 17 18 18 17 18 18 18 19 20 20 20 20 21 21 21 21 21 22 22 22 22 22 23 24 25
Wind_Direction
234 235 237 239 246 252 254 255 265 278 288 285 291 303 310 315 319 323 322 322 323 321 320 318 312 308 305 305 306 305 305 304 304 302 302 298 300 302 302 300 300 299 298 297 296 294 295 294 291
237 238 239 241 246 251 256 260 265 275 286 286 287 293 297 305 308 318 320 318 316 317 318 312 309 303 300 299 299 301 302 304 304 302 302 299 300 302 301 301 300 298 297 296 295 293 293 293 291
238 236 235 239 244 249 257 261 262 268 283 286 284 289 292 301 304 310 316 316 308 311 312 309 306 304 302 300 298 301 301 302 304 303 302 302 301 298 300 301 300 298 295 295 294 293 292 291 291
236 233 233 238 244 251 257 261 263 267 273 279 285 295 295 297 302 307 311 314 307 305 305 308 309 311 309 301 297 297 299 300 302 304 302 300 296 294 295 295 296 296 295 296 295 293 291 289 289
237 237 239 242 251 256 259 260 261 264 266 269 280 288 293 297 303 307 310 310 308 305 305 308 302 305 306 302 301 299 300 301 301 302 300 297 294 294 295 293 295 294 294 293 294 292 291 291 288
245 250 253 250 252 252 255 260 259 261 262 263 274 286 292 298 302 307 309 308 306 305 306 306 307 301 301 301 301 301 300 302 301 300 299 296 292 292 293 294 295 294 294 293 293 292 291 289 286
246 257 257 250 254 254 257 260 259 259 255 261 274 283 292 300 300 305 310 311 306 304 306 308 306 302 302 302 297 297 296 299 300 298 297 296 295 292 292 294 295 293 292 291 290 291 290 288 286
247 255 253 249 256 259 259 258 258 258 261 266 274 284 294 306 305 306 309 312 307 303 305 308 306 302 299 299 296 297 296 297 298 296 295 295 295 296 296 294 292 292 292 291 290 293 292 290 290
247 249 252 253 260 261 266 261 263 262 266 267 276 288 296 303 302 305 307 310 307 303 303 303 304 301 298 297 297 297 297 297 295 294 294 294 294 295 295 292 290 288 290 291 291 291 291 290 290
240 241 250 255 262 266 270 268 267 266 268 273 282 290 293 297 300 302 304 305 305 302 298 297 301 303 301 300 298 297 296 294 292 291 291 292 293 293 292 291 289 288 289 291 292 291 291 290 289
249 249 254 258 262 268 272 273 269 267 268 275 285 289 290 295 300 299 301 305 302 300 296 294 295 299 299 298 295 294 292 290 291 289 289 291 292 292 292 291 289 288 290 292 293 294 291 290 287
248 252 261 266 267 272 278 279 273 272 275 279 283 288 290 291 296 295 296 297 300 300 297 293 291 292 292 292 290 290 289 288 287 288 289 292 291 290 289 291 290 289 291 292 293 293 292 289 286
255 256 266 272 277 280 285 286 282 281 280 280 285 288 289 287 291 293 292 294 296 299 295 290 289 290 291 291 288 287 286 286 288 288 288 289 288 287 286 288 288 290 290 289 290 291 291 289 288
267 267 271 277 282 286 287 283 283 281 280 281 287 287 287 287 289 293 294 294 295 296 294 290 290 290 290 288 287 285 285 285 286 286 287 288 287 287 288 287 289 288 288 289 289 289 290 289 287
272 278 282 284 285 289 290 286 284 283 284 286 289 291 288 288 291 295 296 295 294 294 294 292 290 289 289 288 285 282 283 282 282 284 288 288 287 287 287 287 288 289 289 289 289 289 289 288 287
279 283 286 288 287 291 292 290 288 284 284 288 288 288 288 289 292 293 293 295 296 295 295 293 294 291 288 286 284 282 279 280 281 285 287 287 288 287 288 287 288 288 288 288 288 288 288 288 288
288 290 291 290 290 294 297 296 292 288 287 287 287 286 286 287 290 292 292 296 299 298 297 295 294 292 287 285 283 281 280 279 281 284 286 286 286 286 286 286 286 286 287 288 289 289 288 288 288
291 291 291 292 295 297 296 295 293 291 289 285 284 284 284 285 286 290 292 294 297 298 297 295 291 288 288 287 285 283 283 282 282 283 285 284 285 286 285 286 285 286 287 289 289 290 291 289 287
296 296 293 294 295 294 294 294 293 289 289 289 285 282 281 282 286 289 290 291 294 296 295 292 287 285 285 288 287 284 285 286 284 284 284 284 286 287 285 285 285 287 287 288 290 290 289 289 287
296 297 296 294 293 296 295 295 294 293 291 290 290 285 283 283 284 285 286 288 290 292 291 287 284 281 285 287 289 287 287 286 284 286 284 284 283 284 287 286 284 285 287 289 291 291 291 289 287
297 297 298 295 293 297 298 296 294 294 294 294 291 288 284 282 284 284 285 285 286 289 292 289 284 284 285 283 284 288 286 288 287 285 287 289 288 286 288 287 289 289 291 291 292 292 293 291 288
300 300 300 298 296 297 298 297 296 295 297 298 295 290 287 284 284 285 285 284 285 291 293 289 286 285 284 283 284 288 288 290 290 289 291 292 290 288 291 287 289 290 290 291 293 293 293 292 290
300 302 302 300 298 297 297 296 297 296 297 297 296 292 285 284 282 283 283 283 286 289 290 287 285 286 286 287 288 289 291 293 292 292 293 292 288 290 292 290 290 291 292 292 292 295 295 295 292
302 303 304 303 302 299 299 297 299 299 299 299 294 291 287 285 283 283 285 284 286 286 285 284 287 289 288 290 290 290 291 291 290 291 290 292 291 294 295 294 294 293 294 295 294 295 297 297 295
303 305 306 305 304 303 302 300 302 303 303 303 299 295 292 289 285 286 286 287 287 286 285 283 287 287 287 287 287 288 289 289 289 289 290 293 293 294 294 295 295 296 296 295 296 296 298 298 297
306 308 309 307 307 306 305 304 304 306 306 304 303 298 295 293 288 288 291 293 292 289 285 284 285 286 284 286 287 287 288 290 291 290 291 294 293 294 294 295 298 297 297 298 296 297 299 299 299
309 309 310 308 308 307 306 306 306 307 306 302 300 298 296 294 291 291 294 293 292 289 287 286 285 283 284 285 286 288 290 289 290 291 291 293 294 294 293 295 298 299 298 298 297 297 300 301 300
311 311 310 310 311 310 309 309 311 310 307 303 299 297 293 290 291 294 297 296 292 290 289 287 284 283 284 285 286 290 291 291 291 291 291 292 292 293 292 295 298 301 301 300 300 298 301 302 302
313 312 310 309 311 311 311 312 313 312 311 308 304 297 295 294 295 295 297 297 294 292 293 293 289 287 287 287 288 288 291 291 291 291 293 294 294 295 295 295 299 301 302 302 301 300 302 303 303
316 316 313 312 314 311 311 312 313 312 311 308 304 299 298 297 297 294 295 298 297 296 295 292 289 289 288 289 291 289 291 292 293 292 295 297 297 297 298 297 298 300 301 303 303 302 303 304 303
Height
5871 5871 5873 5874 5875 5875 5875 5876 5876 5876 5876 5876 5875 5875 5875 5875 5876 5878 5876 5874 5873 5873 5872 5872 5870 5870 5870 5870 5869 5869 5868 5868 5867 5866 5866 5865 5865 5864 5864 5864 5863 5863 5863 5862 5862 5862 5862 5862 5862
5869 5871 5872 5873 5873 5873 5874 5874 5874 5875 5875 5874 5874 5874 5874 5874 5874 5874 5873 5872 5872 5872 5871 5870 5869 5869 5868 5868 5867 5867 5866 5866 5865 5864 5864 5863 5862 5862 5862 5861 5861 5860 5860 5860 5859 5859 5859 5859 5859
5868 5869 5871 5871 5871 5872 5873 5873 5873 5873 5873 5873 5873 5872 5873 5873 5873 5872 5872 5871 5871 5870 5870 5869 5868 5867 5866 5866 5865 5864 5864 5864 5863 5862 5862 5861 5860 5859 5859 5858 5858 5857 5857 5856 5856 5856 5856 5856 5856
5867 5868 5869 5870 5870 5871 5871 5871 5871 5871 5871 5871 5871 5871 5871 5871 5871 5871 5870 5869 5869 5869 5868 5867 5866 5865 5865 5864 5863 5862 5862 5861 5861 5860 5859 5858 5857 5857 5856 5856 5855 5854 5854 5853 5853 5852 5852 5852 5852
5865 5866 5868 5868 5868 5869 5869 5869 5869 5869 5869 5869 5869 5869 5869 5869 5869 5868 5868 5867 5867 5867 5866 5865 5864 5864 5863 5862 5861 5860 5859 5859 5858 5857 5856 5856 5855 5854 5853 5853 5852 5851 5851 5850 5849 5849 5848 5849 5848
5864 5865 5866 5866 5866 5867 5867 5867 5867 5866 5867 5866 5866 5867 5867 5867 5867 5866 5866 5865 5865 5864 5864 5863 5862 5862 5860 5859 5859 5858 5857 5856 5855 5854 5854 5853 5852 5851 5850 5849 5849 5848 5847 5847 5846 5845 5845 5844 5844
5864 5864 5864 5864 5864 5865 5865 5865 5864 5864 5863 5864 5864 5864 5864 5865 5865 5864 5864 5863 5862 5862 5862 5861 5860 5859 5858 5857 5856 5855 5854 5853 5853 5852 5851 5850 5849 5848 5847 5846 5845 5844 5844 5843 5842 5842 5841 5840 5840
5862 5863 5862 5862 5862 5863 5863 5862 5862 5862 5861 5862 5862 5862 5863 5863 5863 5862 5862 5861 5860 5860 5859 5859 5858 5857 5856 5854 5853 5853 5852 5851 5850 5849 5848 5847 5845 5844 5843 5842 5842 5841 5840 5840 5839 5838 5837 5837 5836
5860 5862 5861 5861 5860 5861 5860 5860 5860 5860 5860 5860 5860 5860 5861 5861 5861 5860 5860 5859 5858 5858 5857 5856 5855 5854 5853 5852 5851 5850 5849 5848 5846 5846 5845 5843 5842 5841 5840 5839 5838 5837 5837 5836 5835 5834 5833 5833 5832
5859 5860 5859 5859 5859 5859 5858 5858 5858 5858 5857 5858 5858 5858 5858 5858 5858 5858 5857 5856 5856 5855 5854 5853 5852 5851 5850 5849 5848 5847 5846 5845 5843 5842 5841 5840 5839 5838 5837 5836 5835 5834 5833 5832 5831 5830 5829 5828 5828
5858 5858 5858 5857 5857 5856 5856 5856 5856 5856 5855 5855 5855 5856 5856 5856 5855 5855 5854 5854 5853 5852 5851 5850 5849 5848 5847 5846 5845 5844 5842 5841 5840 5839 5838 5837 5836 5835 5833 5832 5831 5830 5830 5829 5828 5826 5825 5824 5823
5857 5857 5857 5857 5856 5855 5855 5855 5854 5854 5854 5853 5853 5853 5853 5853 5852 5851 5851 5850 5849 5849 5847 5846 5845 5844 5843 5842 5841 5839 5838 5837 5836 5835 5834 5833 5832 5831 5830 5829 5827 5826 5825 5824 5823 5822 5821 5820 5819
5856 5856 5855 5855 5854 5853 5853 5853 5852 5852 5851 5851 5850 5849 5850 5849 5849 5848 5847 5846 5845 5844 5843 5842 5841 5840 5839 5837 5836 5835 5834 5833 5832 5831 5830 5829 5828 5827 5826 5825 5824 5822 5821 5820 5819 5818 5817 5815 5814
5855 5855 5854 5853 5852 5851 5851 5851 5850 5849 5848 5848 5847 5847 5847 5846 5845 5844 5843 5843 5842 5840 5839 5838 5837 5836 5835 5833 5832 5831 5830 5829 5828 5827 5826 5825 5824 5823 5822 5821 5820 5818 5817 5815 5814 5813 5812 5811 5809
5854 5854 5853 5852 5851 5849 5849 5849 5847 5846 5845 5844 5844 5844 5843 5843 5842 5841 5840 5839 5838 5836 5835 5833 5832 5831 5830 5829 5827 5826 5825 5824 5823 5823 5821 5820 5820 5819 5818 5817 5816 5814 5812 5811 5810 5808 5807 5806 5805
5853 5852 5851 5851 5849 5848 5848 5846 5845 5842 5842 5841 5840 5840 5839 5839 5838 5837 5836 5834 5833 5832 5830 5829 5828 5827 5825 5824 5822 5821 5820 5820 5819 5818 5817 5815 5815 5814 5813 5813 5811 5810 5808 5807 5805 5804 5802 5801 5800
5851 5850 5849 5848 5847 5845 5844 5842 5840 5839 5838 5837 5836 5836 5835 5834 5834 5833 5831 5830 5829 5827 5826 5824 5823 5821 5820 5819 5818 5817 5815 5815 5814 5813 5812 5811 5810 5810 5809 5808 5807 5805 5803 5802 5800 5798 5797 5795 5794
5850 5848 5847 5845 5844 5842 5840 5839 5837 5835 5834 5833 5832 5831 5830 5830 5829 5828 5826 5825 5824 5823 5821 5819 5817 5816 5815 5815 5814 5812 5811 5810 5809 5809 5808 5807 5805 5804 5804 5803 5801 5800 5798 5797 5795 5793 5791 5790 5788
5847 5846 5845 5843 5841 5839 5837 5836 5834 5832 5831 5829 5828 5826 5826 5825 5825 5824 5822 5820 5819 5818 5816 5814 5813 5811 5810 5809 5808 5807 5806 5805 5805 5804 5803 5803 5801 5799 5798 5797 5796 5794 5793 5791 5789 5787 5785 5784 5782
5845 5844 5842 5841 5838 5836 5834 5832 5830 5828 5826 5824 5822 5821 5821 5820 5820 5818 5817 5816 5815 5813 5811 5810 5808 5806 5805 5805 5804 5802 5802 5801 5800 5799 5799 5798 5796 5795 5794 5791 5790 5788 5787 5785 5783 5782 5780 5778 5776
5843 5841 5839 5837 5834 5832 5830 5829 5826 5824 5821 5820 5818 5817 5816 5815 5814 5813 5812 5811 5809 5807 5806 5804 5802 5802 5801 5800 5799 5798 5798 5797 5795 5794 5794 5793 5791 5790 5788 5786 5785 5783 5781 5780 5778 5776 5774 5772 5770
5840 5838 5835 5832 5830 5828 5827 5823 5822 5819 5817 5815 5813 5812 5811 5810 5809 5808 5807 5806 5804 5803 5801 5800 5799 5797 5796 5796 5795 5795 5794 5793 5791 5789 5788 5788 5786 5784 5782 5781 5780 5778 5776 5774 5772 5770 5768 5766 5763
5836 5834 5831 5828 5826 5824 5822 5819 5818 5814 5812 5810 5808 5807 5806 5805 5805 5804 5802 5800 5799 5797 5796 5795 5794 5793 5792 5791 5790 5789 5789 5788 5787 5785 5784 5783 5781 5779 5778 5776 5774 5773 5771 5769 5767 5764 5762 5760 5757
5832 5830 5827 5824 5822 5820 5818 5815 5813 5810 5807 5806 5804 5803 5801 5800 5799 5798 5796 5794 5793 5792 5791 5790 5789 5788 5787 5786 5785 5784 5784 5782 5782 5781 5779 5778 5776 5774 5772 5771 5769 5768 5766 5764 5761 5759 5756 5754 5752
5827 5825 5822 5819 5817 5815 5813 5810 5808 5805 5802 5800 5799 5797 5796 5794 5793 5792 5791 5789 5788 5787 5785 5785 5784 5783 5782 5781 5780 5779 5778 5777 5776 5775 5774 5772 5771 5769 5767 5765 5764 5762 5760 5758 5755 5752 5750 5748 5746
5822 5820 5817 5814 5810 5809 5807 5805 5804 5800 5798 5796 5794 5792 5791 5789 5788 5787 5785 5784 5782 5781 5780 5780 5778 5777 5776 5776 5774 5773 5772 5771 5770 5769 5767 5765 5764 5763 5761 5760 5758 5756 5754 5751 5749 5747 5744 5742 5740
5817 5814 5812 5808 5805 5803 5802 5801 5799 5796 5794 5792 5789 5788 5786 5785 5783 5782 5780 5778 5777 5776 5775 5773 5773 5772 5770 5770 5769 5768 5767 5765 5764 5762 5761 5760 5758 5757 5755 5754 5752 5750 5748 5745 5743 5741 5738 5736 5734
5813 5810 5806 5803 5800 5798 5798 5796 5795 5792 5790 5788 5786 5784 5782 5780 5779 5777 5775 5773 5772 5771 5769 5768 5766 5766 5765 5764 5763 5762 5761 5760 5758 5757 5755 5754 5753 5751 5749 5748 5746 5744 5742 5739 5736 5734 5732 5730 5727
5809 5805 5801 5799 5796 5795 5793 5794 5790 5788 5785 5783 5781 5779 5777 5776 5774 5772 5770 5768 5767 5766 5764 5763 5761 5760 5760 5759 5758 5757 5755 5754 5753 5751 5750 5749 5747 5745 5743 5741 5740 5738 5735 5733 5730 5728 5726 5724 5721
5804 5801 5798 5796 5794 5791 5789 5792 5786 5784 5782 5779 5777 5775 5773 5771 5769 5767 5765 5763 5762 5760 5760 5758 5757 5756 5754 5753 5752 5752 5750 5749 5747 5746 5744 5743 5741 5739 5737 5735 5734 5732 5730 5727 5725 5722 5720 5718 5715